| time (UTC) | temp F | wind direction | speed MPH | gust MPH | rain 1hr in | rain 24hr in | rain mn in | humidity % | barometer mb |
| 20260507191538 | 58 | 269 | 9.0 | 18.0 | 0.00 | 1.21 | 1.21 | 75 | 997.6 |
| 20260507190037 | 58 | 243 | 8.0 | 17.0 | 0.00 | 1.21 | 1.21 | 75 | 998.7 |
| 20260507184536 | 59 | 234 | 5.0 | 18.0 | 0.00 | 1.21 | 1.21 | 76 | 999.2 |
| 20260507183037 | 59 | 271 | 7.0 | 20.0 | 0.00 | 1.21 | 1.21 | 76 | 999.2 |
| 20260507181534 | 59 | 276 | 8.0 | 18.0 | 0.00 | 1.21 | 1.21 | 76 | 1000.2 |
| 20260507180037 | 58 | 241 | 10.0 | 17.0 | 0.00 | 1.21 | 1.21 | 78 | 1000.8 |
| 20260507174541 | 58 | 294 | 6.0 | 17.0 | 0.00 | 1.21 | 1.21 | 78 | 1000.0 |
| 20260507173035 | 58 | 255 | 6.0 | 13.0 | 0.00 | 1.21 | 1.21 | 80 | 999.0 |
| 20260507171536 | 58 | 256 | 3.0 | 7.0 | 0.00 | 1.21 | 1.21 | 80 | 998.7 |
| 20260507170041 | 58 | 239 | 6.0 | 17.0 | 0.00 | 1.21 | 1.21 | 79 | 999.4 |
| 20260507164530 | 58 | 271 | 9.0 | 20.0 | 0.00 | 1.21 | 1.21 | 78 | 1000.4 |
| 20260507163025 | 58 | 261 | 9.0 | 24.0 | 0.00 | 1.21 | 1.21 | 79 | 1000.7 |
| 20260507161521 | 59 | 247 | 10.0 | 17.0 | 0.00 | 1.21 | 1.21 | 80 | 999.5 |
| 20260507160019 | 59 | 260 | 9.0 | 18.0 | 0.00 | 1.21 | 1.21 | 82 | 998.7 |
| 20260507154517 | 59 | 256 | 5.0 | 10.0 | 0.00 | 1.21 | 1.21 | 85 | 999.0 |
| 20260507153019 | 60 | 240 | 7.0 | 16.0 | 0.00 | 1.21 | 1.21 | 84 | 999.5 |
| 20260507151515 | 59 | 273 | 7.0 | 17.0 | 0.00 | 1.21 | 1.21 | 84 | 999.1 |
| 20260507150015 | 60 | 252 | 10.0 | 18.0 | 0.00 | 1.21 | 1.21 | 85 | 999.5 |
| 20260507144513 | 61 | 237 | 6.0 | 16.0 | 0.00 | 1.21 | 1.21 | 88 | 999.9 |
| 20260507143012 | 61 | 261 | 1.0 | 9.0 | 0.00 | 1.21 | 1.21 | 88 | 998.6 |
| 20260507141510 | 61 | 240 | 1.0 | 6.0 | 0.00 | 1.21 | 1.21 | 88 | 998.7 |
| 20260507140009 | 61 | 236 | 5.0 | 11.0 | 0.00 | 1.21 | 1.21 | 88 | 999.0 |
| 20260507134509 | 61 | 244 | 2.0 | 6.0 | 0.00 | 1.28 | 1.21 | 89 | 998.6 |
| 20260507133008 | 60 | 254 | 5.0 | 8.0 | 0.00 | 1.28 | 1.21 | 88 | 999.7 |
| 20260507131510 | 60 | 247 | 0.0 | 6.0 | 0.00 | 1.28 | 1.21 | 90 | 1000.3 |
| 20260507130007 | 60 | 320 | 3.0 | 12.0 | 0.00 | 1.28 | 1.21 | 90 | 1001.5 |
| 20260507124509 | 60 | 258 | 4.0 | 10.0 | 0.00 | 1.28 | 1.21 | 91 | 999.7 |
| 20260507123005 | 59 | 249 | 6.0 | 11.0 | 0.00 | 1.28 | 1.21 | 94 | 998.8 |
| 20260507121502 | 59 | 258 | 5.0 | 14.0 | 0.00 | 1.28 | 1.21 | 97 | 999.2 |
| 20260507120105 | 58 | 252 | 7.0 | 18.0 | 0.00 | 1.28 | 1.21 | 97 | 999.1 |
| 20260507114614 | 58 | 254 | 9.0 | 16.0 | 0.00 | 1.28 | 1.21 | 97 | 997.3 |
| 20260507113058 | 59 | 220 | 6.0 | 18.0 | 0.00 | 1.28 | 1.21 | 98 | 998.3 |
| 20260507111552 | 60 | 319 | 3.0 | 12.0 | 0.00 | 1.28 | 1.21 | 98 | 998.7 |
| 20260507110052 | 60 | 247 | 6.0 | 12.0 | 0.00 | 1.28 | 1.21 | 98 | 997.3 |
| 20260507104547 | 60 | 242 | 5.0 | 10.0 | 0.00 | 1.28 | 1.21 | 98 | 997.2 |
| 20260507103046 | 61 | 263 | 6.0 | 15.0 | 0.00 | 1.28 | 1.21 | 98 | 997.9 |
| 20260507101543 | 61 | 273 | 5.0 | 13.0 | 0.00 | 1.28 | 1.21 | 98 | 998.5 |
| 20260507100042 | 61 | 301 | 0.0 | 6.0 | 0.00 | 1.28 | 1.21 | 98 | 997.2 |
| 20260507094541 | 61 | 268 | 6.0 | 15.0 | 0.00 | 1.28 | 1.21 | 98 | 997.7 |
| 20260507093043 | 62 | 267 | 5.0 | 10.0 | 0.00 | 1.28 | 1.21 | 98 | 997.2 |
| 20260507091537 | 62 | 252 | 3.0 | 8.0 | 0.00 | 1.28 | 1.21 | 98 | 996.5 |
| 20260507090037 | 63 | 242 | 4.0 | 8.0 | 0.00 | 1.28 | 1.21 | 98 | 998.0 |
| 20260507084534 | 63 | 242 | 5.0 | 14.0 | 0.00 | 1.28 | 1.21 | 98 | 997.1 |
| 20260507083033 | 63 | 237 | 5.0 | 12.0 | 0.02 | 1.28 | 1.21 | 97 | 997.1 |
| 20260507081541 | 63 | 248 | 3.0 | 6.0 | 0.02 | 1.28 | 1.21 | 97 | 996.5 |
| 20260507080031 | 63 | 101 | 0.0 | 7.0 | 0.02 | 1.28 | 1.21 | 97 | 996.8 |
| 20260507074546 | 63 | 73 | 2.0 | 6.0 | 0.02 | 1.27 | 1.20 | 97 | 996.2 |
| 20260507073030 | 63 | 151 | 1.0 | 10.0 | 0.03 | 1.26 | 1.20 | 97 | 997.0 |
| 20260507071529 | 63 | 76 | 2.0 | 11.0 | 0.06 | 1.26 | 1.20 | 97 | 997.1 |
| 20260507070026 | 64 | 105 | 3.0 | 8.0 | 0.10 | 1.26 | 1.20 | 97 | 997.2 |
| 20260507064524 | 64 | 106 | 3.0 | 8.0 | 0.10 | 1.24 | 1.18 | 97 | 998.2 |
| 20260507063026 | 64 | 140 | 2.0 | 5.0 | 0.11 | 1.23 | 1.17 | 97 | 998.9 |
| 20260507061522 | 64 | 188 | 0.0 | 4.0 | 0.09 | 1.20 | 1.12 | 97 | 999.9 |
| 20260507060022 | 64 | 266 | 3.0 | 10.0 | 0.06 | 1.15 | 1.09 | 97 | 1000.2 |
| 20260507054520 | 65 | 249 | 4.0 | 9.0 | 0.05 | 1.13 | 1.08 | 97 | 1000.6 |
| 20260507053016 | 65 | 247 | 0.0 | 5.0 | 0.17 | 1.12 | 1.06 | 96 | 999.2 |
| 20260507051516 | 65 | 308 | 0.0 | 6.0 | 0.73 | 1.10 | 1.04 | 95 | 998.5 |
| 20260507050024 | 65 | 150 | 1.0 | 6.0 | 0.94 | 1.10 | 1.04 | 95 | 998.5 |
| 20260507044512 | 66 | 131 | 2.0 | 8.0 | 1.02 | 1.09 | 1.03 | 94 | 998.1 |
| 20260507043010 | 66 | 265 | 5.0 | 10.0 | 0.87 | 0.94 | 0.87 | 94 | 998.5 |
| 20260507041506 | 67 | 217 | 7.0 | 23.0 | 0.28 | 0.34 | 0.28 | 92 | 999.4 |
| 20260507040005 | 72 | 153 | 9.0 | 25.0 | 0.09 | 0.15 | 0.09 | 85 | 997.7 |
| 20260507034601 | 76 | 331 | 5.0 | 12.0 | 0.01 | 0.07 | 0.01 | 82 | 996.0 |
| 20260507033100 | 77 | 25 | 2.0 | 9.0 | 0.00 | 0.06 | 0.00 | 81 | 996.2 |
| 20260507031604 | 77 | 339 | 5.0 | 16.0 | 0.00 | 0.06 | 0.00 | 81 | 996.2 |
| 20260507030054 | 77 | 33 | 5.0 | 11.0 | 0.00 | 0.06 | 0.00 | 81 | 996.6 |
| 20260507024547 | 77 | 42 | 3.0 | 9.0 | 0.00 | 0.06 | 0.06 | 81 | 996.9 |
| 20260507023043 | 77 | 355 | 3.0 | 12.0 | 0.00 | 0.06 | 0.06 | 81 | 997.0 |
| 20260507021540 | 77 | 339 | 3.0 | 18.0 | 0.00 | 0.06 | 0.06 | 81 | 997.3 |
| 20260507020042 | 77 | 7 | 4.0 | 12.0 | 0.00 | 0.06 | 0.06 | 81 | 997.4 |
| 20260507014548 | 77 | 20 | 3.0 | 14.0 | 0.00 | 0.06 | 0.06 | 81 | 998.0 |
| 20260507013039 | 77 | 26 | 2.0 | 11.0 | 0.00 | 0.06 | 0.06 | 81 | 997.9 |
| 20260507011541 | 77 | 278 | 4.0 | 15.0 | 0.00 | 0.06 | 0.06 | 81 | 998.2 |
| 20260507010040 | 77 | 346 | 6.0 | 15.0 | 0.00 | 0.06 | 0.06 | 81 | 998.2 |
| 20260507004535 | 77 | 333 | 3.0 | 10.0 | 0.00 | 0.06 | 0.06 | 82 | 998.4 |
| 20260507003035 | 76 | 349 | 4.0 | 10.0 | 0.00 | 0.06 | 0.06 | 83 | 998.4 |
| 20260507001535 | 76 | 62 | 3.0 | 10.0 | 0.00 | 0.06 | 0.06 | 84 | 998.2 |
| 20260507000037 | 75 | 60 | 2.0 | 9.0 | 0.00 | 0.06 | 0.06 | 85 | 998.1 |
| 20260506234530 | 74 | 24 | 3.0 | 6.0 | 0.00 | 0.06 | 0.06 | 86 | 998.0 |
| 20260506233033 | 74 | 59 | 3.0 | 11.0 | 0.00 | 0.06 | 0.06 | 86 | 997.4 |
| 20260506231525 | 72 | 42 | 3.0 | 9.0 | 0.00 | 0.06 | 0.06 | 88 | 997.7 |
| 20260506230022 | 71 | 74 | 3.0 | 9.0 | 0.00 | 0.06 | 0.06 | 90 | 998.0 |
| 20260506224518 | 70 | 66 | 2.0 | 6.0 | 0.00 | 0.06 | 0.06 | 89 | 998.6 |
| 20260506223017 | 69 | 45 | 2.0 | 5.0 | 0.00 | 0.06 | 0.06 | 90 | 998.7 |
| 20260506221513 | 69 | 71 | 2.0 | 6.0 | 0.00 | 0.06 | 0.06 | 89 | 999.2 |
| 20260506220020 | 69 | 84 | 2.0 | 6.0 | 0.00 | 0.06 | 0.06 | 89 | 999.4 |
| 20260506214512 | 69 | 72 | 0.0 | 5.0 | 0.00 | 0.06 | 0.06 | 89 | 999.9 |
| 20260506213008 | 70 | 63 | 2.0 | 5.0 | 0.00 | 0.06 | 0.06 | 88 | 1000.1 |
| 20260506211509 | 70 | 72 | 1.0 | 4.0 | 0.00 | 0.06 | 0.06 | 88 | 1000.1 |
| 20260506210009 | 70 | 73 | 1.0 | 5.0 | 0.00 | 0.06 | 0.06 | 87 | 1000.3 |
| 20260506204510 | 71 | 49 | 1.0 | 7.0 | 0.00 | 0.06 | 0.06 | 87 | 1000.3 |
| 20260506203004 | 71 | 102 | 2.0 | 5.0 | 0.00 | 0.06 | 0.06 | 87 | 1000.3 |
| 20260506201503 | 71 | 109 | 2.0 | 5.0 | 0.00 | 0.06 | 0.06 | 87 | 1000.3 |
| 20260506200101 | 70 | 119 | 2.0 | 5.0 | 0.00 | 0.06 | 0.06 | 87 | 1000.7 |
| 20260506194633 | 71 | 94 | 2.0 | 9.0 | 0.00 | 0.06 | 0.06 | 87 | 1000.8 |
| 20260506193105 | 72 | 100 | 3.0 | 6.0 | 0.00 | 0.06 | 0.06 | 85 | 1001.1 |